Weather History for Charleston, SC

Change the Weather History Date:

Wednesday, October 5, 2011

  Actual Average Record
Temperature  
Mean Temperature 66 °F 70 °F  
Max Temperature 79 °F 80 °F 94 °F (1954)
Min Temperature 53 °F 61 °F 42 °F (1974)
Degree Days  
Heating Degree Days 0 1  
Month to date heating degree days 17 5  
Since 1 July heating degree days 17 8  
Cooling Degree Days 1 6  
Month to date cooling degree days 1 33  
Year to date cooling degree days 2588 2171  
Growing Degree Days 16 (Base 50)    
Moisture  
Dew Point 53 °F    
Average Humidity 68    
Maximum Humidity 100    
Minimum Humidity 35    
Precipitation  
Precipitation 0.00 in 0.15 in 1.79 in (1964)
Month to date precipitation 0.00 0.80  
Year to date precipitation 33.05 42.54  
Snow  
Snow 0.00 in 0.00 in 0.00 in (2002)
Month to date snowfall 0.0  
Since 1 July snowfall 0.0 0.0  
Snow Depth 0.00 in    
Sea Level Pressure  
Sea Level Pressure 30.20 in    
Wind  
Wind Speed 4 mph (North)    
Max Wind Speed 12 mph    
Max Gust Speed 16 mph    
Visibility 10 miles    
Events Fog    
T = Trace of Precipitation, MM = Missing Value Source: NWS Daily Summary

Daily Weather History Graph

Daily Weather History Graph

Search for Another Location

Airport:

Trip Planner

Search our weather history database for the weather conditions in past years. The results will help you decide how hot, cold, wet, or windy it might be!

Date:

Astronomy

Oct. 05, 2011 Rise Set
Actual Time 7:16 AM EDT 6:59 PM EDT
Civil Twilight 6:52 AM EDT 7:24 PM EDT
Nautical Twilight 6:23 AM EDT 7:53 PM EDT
Astronomical Twilight 5:54 AM EDT 8:21 PM EDT
Moon 3:22 PM EDT (10/5) 1:20 AM EDT (10/5)
Length of Visible Light 12h 32m
Length of Day
11h 42m
Waxing Gibbous, 66% of the Moon is Illuminated
Oct 5
Waxing Gibbous
Oct 11
Full
Oct 19
Last Quarter
Oct 26
New
Nov 2
First Quarter

Hourly Weather History & Observations

Time (EDT) Temp. Dew Point Humidity Pressure Visibility Wind Dir Wind Speed Gust Speed Precip Events Conditions
12:56 AM 57.0 °F 55.0 °F 93% 30.20 in 10.0 mi Calm Calm - N/A   Clear
1:56 AM 55.9 °F 54.0 °F 93% 30.20 in 10.0 mi North 3.5 mph - N/A   Clear
2:56 AM 55.9 °F 55.0 °F 97% 30.20 in 10.0 mi Calm Calm - N/A   Clear
3:56 AM 54.0 °F 53.1 °F 97% 30.19 in 10.0 mi North 3.5 mph - N/A   Clear
4:56 AM 54.0 °F 52.0 °F 93% 30.19 in 10.0 mi Calm Calm - N/A   Clear
5:56 AM 53.1 °F 52.0 °F 96% 30.21 in 10.0 mi North 3.5 mph - N/A Fog Shallow Fog
6:56 AM 54.0 °F 52.0 °F 93% 30.22 in 10.0 mi North 3.5 mph - N/A   Partly Cloudy
7:56 AM 55.9 °F 53.1 °F 90% 30.23 in 10.0 mi North 5.8 mph - N/A   Partly Cloudy
8:56 AM 64.0 °F 55.9 °F 75% 30.24 in 10.0 mi NNE 3.5 mph - N/A   Partly Cloudy
9:56 AM 69.1 °F 55.0 °F 61% 30.25 in 10.0 mi North 6.9 mph - N/A   Partly Cloudy
10:56 AM 73.0 °F 53.1 °F 49% 30.25 in 10.0 mi Variable 6.9 mph - N/A   Partly Cloudy
11:56 AM 75.0 °F 50.0 °F 41% 30.25 in 10.0 mi NNE 6.9 mph - N/A   Partly Cloudy
12:56 PM 75.0 °F 51.1 °F 43% 30.23 in 10.0 mi North 5.8 mph - N/A   Partly Cloudy
1:56 PM 77.0 °F 52.0 °F 42% 30.20 in 10.0 mi Variable 4.6 mph - N/A   Partly Cloudy
2:56 PM 77.0 °F 51.1 °F 40% 30.18 in 10.0 mi Variable 3.5 mph - N/A   Partly Cloudy
3:56 PM 78.1 °F 50.0 °F 37% 30.16 in 10.0 mi North 6.9 mph - N/A   Partly Cloudy
4:56 PM 78.1 °F 48.9 °F 36% 30.16 in 10.0 mi North 8.1 mph - N/A   Partly Cloudy
5:56 PM 75.9 °F 51.1 °F 42% 30.16 in 10.0 mi NNE 5.8 mph - N/A   Partly Cloudy
6:56 PM 71.1 °F 53.1 °F 53% 30.16 in 10.0 mi Calm Calm - N/A   Partly Cloudy
7:56 PM 66.9 °F 57.0 °F 70% 30.17 in 10.0 mi SSE 3.5 mph - N/A   Partly Cloudy
8:56 PM 66.9 °F 57.0 °F 70% 30.18 in 10.0 mi Calm Calm - N/A   Clear
9:56 PM 63.0 °F 57.0 °F 81% 30.20 in 10.0 mi Calm Calm - N/A   Clear
10:56 PM 61.0 °F 57.0 °F 87% 30.20 in 10.0 mi Calm Calm - N/A   Clear
11:56 PM 60.1 °F 57.9 °F 93% 30.20 in 10.0 mi Calm Calm - N/A   Clear